AO-07 1 07530U 74089B 25042.63466940 -.00000027 00000-0 12152-3 0 9998 2 07530 101.9935 45.6428 0012133 348.5651 120.9798 12.53686094299040 UO-11 1 14781U 84021B 25042.46970907 .00003200 00000-0 34855-3 0 9994 2 14781 97.7391 11.3367 0008317 19.3178 340.8353 14.88670880184063 AO-27 1 22825U 93061C 25042.59168698 .00000242 00000-0 10968-3 0 9998 2 22825 98.7547 103.4722 0009483 98.3427 261.8830 14.30726636636840 FO-29 1 24278U 96046B 25042.60213910 .00000006 00000-0 45359-4 0 9999 2 24278 98.5875 311.9543 0349003 288.2745 68.0719 13.53236767406811 NOAA-15 1 25338U 98030A 25042.86923918 .00000319 00000-0 14901-3 0 9991 2 25338 98.5484 70.7641 0009929 350.0458 10.0525 14.26880707391616 GO-32 1 25397U 98043D 25042.46127289 .00000219 00000-0 11514-3 0 9999 2 25397 98.9568 19.2032 0001511 145.7541 214.3734 14.24251563381475 ISS 1 25544U 98067A 25042.51798308 .00016031 00000-0 28803-3 0 9999 2 25544 51.6349 209.4648 0003968 302.4562 57.6043 15.50022971495679 NO-44 1 26931U 01043C 25042.51493214 .00000403 00000-0 18220-3 0 9994 2 26931 67.0500 73.0759 0006050 263.9884 96.0528 14.31614909220207 SO-50 1 27607U 02058C 25042.54507222 .00002702 00000-0 36168-3 0 9995 2 27607 64.5528 204.7094 0042107 3.9748 356.1682 14.80931062191742 CO-55 1 27844U 03031E 25042.55859718 .00000693 00000-0 32196-3 0 9995 2 27844 98.6788 52.3498 0009963 163.9036 196.2461 14.23814180121846 CO-57 1 27848U 03031J 25042.45276813 .00000627 00000-0 29688-3 0 9996 2 27848 98.6815 52.3381 0009531 180.6518 179.4650 14.23175638121564 RS-22 1 27939U 03042A 25042.82333017 .00002339 00000-0 38282-3 0 9992 2 27939 98.3129 209.5484 0012023 27.3667 109.7010 14.71744832143507 NOAA-18 1 28654U 05018A 25042.76929474 .00000349 00000-0 20843-3 0 9996 2 28654 98.8518 123.5424 0015175 104.0353 256.2508 14.13512473 17100 CO-58 1 28895U 05043F 25042.33673647 .00003585 00000-0 60342-3 0 9995 2 28895 98.2283 185.4078 0014279 324.4677 35.5576 14.70135219 29561 CO-65 1 32785U 08021C 25042.87019000 .00009318 00000-0 71199-3 0 9995 2 32785 97.7678 13.4370 0008988 250.0372 109.9885 15.02141038911467 AAUSAT2 1 32788U 08021F 25042.50264275 .00098760 00000-0 19206-2 0 9993 2 32788 97.6050 34.0359 0007233 80.0433 280.1632 15.47211299915002 CO-66 1 32791U 08021J 25042.86382773 .00017784 00000-0 98658-3 0 9996 2 32791 97.7178 20.7481 0003822 174.6755 185.4517 15.13818968912738 RS-30 1 32953U 08025A 25042.82170425 .00000045 00000-0 25511-3 0 9995 2 32953 82.5040 300.4377 0018983 304.8965 55.0330 12.43158570758902 NOAA-19 1 33591U 09005A 25042.82733037 .00000311 00000-0 19018-3 0 9998 2 33591 99.0141 106.7983 0013245 340.0213 20.0439 14.13282563825478 SRMSAT 1 37841U 11058D 25042.59437977 .00000593 00000-0 17878-3 0 9993 2 37841 19.9710 148.4919 0011601 206.8692 181.3186 14.11358825688648 ZACUBE-1 1 39417U 13066B 25042.84762849 .00007663 00000-0 69895-3 0 9993 2 39417 97.7662 0.7530 0048170 85.2730 275.3989 14.94482338607319 Delfi-N3xt 1 39428U 13066N 25042.74618090 .00012467 00000-0 13493-2 0 9992 2 39428 97.8384 321.9352 0090648 29.0363 331.5850 14.85384576601746 GOMX-1 1 39430U 13066Q 25042.71411290 .00003921 00000-0 62333-3 0 9998 2 39430 97.7000 268.5528 0133525 209.0086 150.3654 14.66775032598124 LO-74 1 39440U 13066AA 25042.81996898 .00005406 00000-0 57210-3 0 9990 2 39440 97.8384 348.4280 0063336 206.7792 153.0151 14.88104485605116 AO-73 1 39444U 13066AE 25042.81858146 .00011959 00000-0 96838-3 0 9996 2 39444 97.7491 4.7513 0043525 62.7610 297.8037 14.99128887606515 DTUSAT-2 1 40030U 14033W 25042.83235567 .00011116 00000-0 78018-3 0 9997 2 40030 98.0427 9.2955 0012259 96.8700 263.3920 15.05282117579174 EO-80 1 40032U 14033Y 25042.46035938 .00012948 00000-0 90633-3 0 9999 2 40032 98.0294 8.7221 0010410 48.7582 311.4538 15.05357903578589 XW-2C 1 40906U 15049H 25042.80722895 .01183956 90738-3 12009-2 0 9999 2 40906 97.4405 78.2554 0003876 177.1746 182.9560 16.11150885521856 LILACSAT-2 1 40908U 15049K 25042.84003550 .00015305 00000-0 45570-3 0 9996 2 40908 97.5159 60.6097 0008914 212.1420 147.9281 15.34761235520142 IO-86 1 40931U 15052B 25038.81889873 .00001817 00000-0 15548-3 0 9993 2 40931 6.0001 108.1159 0012838 187.7041 172.2889 14.78568669506492 Horyu-4 1 41340U 16012D 25042.72870611 .00026351 00000-0 89267-3 0 9999 2 41340 30.9977 200.3243 0005937 282.4385 77.5594 15.29359822494683 Lapan A3 1 41603U 16040E 25042.78492502 .00005227 00000-0 19094-3 0 9997 2 41603 97.1390 52.1048 0010412 339.5596 20.5226 15.28468799479784 CAS-2T 1 41847U 16066G 25042.61676610 .00003234 00000-0 46945-3 0 9992 2 41847 98.4334 118.0907 0348437 175.0617 185.4162 14.42905162434001 CAS-4B 1 42759U 17034B 25042.87455974 .00042424 00000-0 81356-3 0 9996 2 42759 43.0117 294.9420 0016705 194.7729 165.2644 15.47148115424277 CAS-4A 1 42761U 17034D 25042.84075779 .00043125 00000-0 81340-3 0 9999 2 42761 43.0152 293.0981 0018194 200.5146 159.4984 15.47590047424282 TechnoSat 1 42829U 17042E 25042.52437115 .00005204 00000-0 41921-3 0 9991 2 42829 97.3890 216.9508 0012058 334.1775 25.8846 15.00278927413013 AO-91 1 43017U 17073E 25042.58148298 .00013267 00000-0 72129-3 0 9994 2 43017 97.5494 276.4258 0181355 207.8306 151.3127 15.01531096391484 S-Net D 1 43186U 18014G 25042.68198398 .00008933 00000-0 55721-3 0 9997 2 43186 97.5739 306.8824 0007754 271.1065 88.9275 15.09729298384578 S-Net B 1 43187U 18014H 25042.68600205 .00008725 00000-0 54447-3 0 9996 2 43187 97.5744 306.8519 0008478 265.2691 94.7570 15.09714241384574 S-Net A 1 43188U 18014J 25042.21878628 .00009495 00000-0 59197-3 0 9994 2 43188 97.5751 306.5255 0008384 267.9740 92.0529 15.09726011384503 S-Net C 1 43189U 18014K 25042.62185510 .00008305 00000-0 51839-3 0 9995 2 43189 97.5767 306.9176 0009962 257.3874 102.6241 15.09710145383117 Ten-Koh 1 43677U 18084G 25042.73065151 .00005254 00000-0 43432-3 0 9994 2 43677 98.0828 210.3233 0011035 300.6455 59.3679 14.99352638342571 PO-101 1 43678U 18084H 25042.88398979 .00003569 00000-0 31318-3 0 9995 2 43678 98.0918 214.6470 0007643 325.0108 35.0610 14.97279611342762 QO-100 1 43700U 18090A 25042.37683602 .00000133 00000-0 00000-0 0 9997 2 43700 0.0133 89.9369 0001311 242.9010 330.2305 1.00273079 22752 MinXSS-2 1 43758U 18099A 25042.60458639 .00020351 00000-0 94393-3 0 9990 2 43758 97.5197 108.6205 0012996 207.1818 152.8737 15.20009289339018 AO-95 1 43770U 18099N 25042.60631241 .00012900 00000-0 71935-3 0 9994 2 43770 97.5109 102.1641 0010333 260.0457 99.9608 15.13664409338681 RANGE-A 1 43773U 18099R 25042.57578996 .00006703 00000-0 44908-3 0 9994 2 43773 97.4671 94.4272 0010686 232.5098 127.5158 15.07162710338438 MOVE-II 1 43780U 18099Y 25042.15177605 .00072246 00000-0 17193-2 0 9998 2 43780 97.4844 112.2800 0004139 215.5022 144.5950 15.41356240339383 SNUSat 2 1 43782U 18099AA 25042.70947188 .00011604 00000-0 68541-3 0 9997 2 43782 97.4791 99.9271 0012522 196.3056 163.7773 15.11595640338670 SnugLite 1 43784U 18099AC 25042.59461376 .00012964 00000-0 71769-3 0 9992 2 43784 97.4606 99.1847 0003487 186.3865 173.7323 15.13958806338766 ITASat 1 1 43786U 18099AE 25042.59959176 .00009375 00000-0 57371-3 0 9999 2 43786 97.4758 99.6420 0013839 251.5209 108.4517 15.10353055338635 EAGLET 1 1 43790U 18099AJ 25042.59465279 .00006062 00000-0 40516-3 0 9993 2 43790 97.4948 99.9194 0011461 229.6753 130.3474 15.07287392338284 ESEO 1 43792U 18099AL 25042.57230327 .00002989 00000-0 23366-3 0 9995 2 43792 97.4612 94.6746 0010300 192.4235 167.6738 15.01778654338109 CSIM 1 43793U 18099AM 25042.46286422 .00082159 00000-0 19468-2 0 9995 2 43793 97.5021 114.5686 0007386 191.2939 168.8142 15.41425553339270 JO-97 1 43803U 18099AX 25042.39784586 .00016477 00000-0 84780-3 0 9993 2 43803 97.4854 102.7638 0007978 190.0551 170.0523 15.16480883338833 Suomi 100 1 43804U 18099AY 25042.57603476 .00015281 00000-0 82624-3 0 9999 2 43804 97.4922 102.5150 0013116 193.7041 166.3837 15.14695931338816 ISAT 1 43879U 18111D 25042.25983712 .00024864 00000-0 10582-2 0 9995 2 43879 97.6046 314.5738 0007815 248.3626 111.6778 15.22961697335648 UWE-4 1 43880U 18111E 25042.17721161 .00021353 00000-0 98165-3 0 9990 2 43880 97.5982 313.6763 0011237 263.8910 96.1044 15.20326085335600 Sparrow 1 43881U 18111F 25041.73325156 .00028706 00000-0 11907-2 0 9993 2 43881 97.6169 316.5101 0005874 307.0758 52.9941 15.23813619333643 Prox-1 1 44339U 19036A 25042.48313305 .00017253 00000-0 24151-2 0 9995 2 44339 23.9978 115.3877 0008243 160.6002 199.4808 14.75932908300524 SONATE 1 44400U 19038Q 25042.57260777 .00070125 00000-0 91836-3 0 9992 2 44400 97.7093 57.1688 0007925 339.6164 20.4774 15.58331357311021 Taurus 1 1 44530U 19059C 25042.80686742 .00010487 00000-0 20602-2 0 9996 2 44530 98.5908 176.9604 0009210 38.2290 321.9561 14.62821293286704 Duchifat 3 1 44854U 19089C 25042.33489740 .00044231 00000-0 13175-2 0 9996 2 44854 36.9495 20.0650 0010410 279.7020 80.2556 15.33687780284771 TO-108 1 44881U 19093C 25042.80904514 .00002039 00000-0 24430-3 0 9991 2 44881 97.8043 120.9029 0012629 256.8163 103.1643 14.85119551278591 FloripaSat 1 1 44885U 19093G 25042.80920089 .00008250 00000-0 73795-3 0 9999 2 44885 97.8230 130.3445 0010300 237.5655 122.4570 14.96085330279128 RS-44 1 44909U 19096E 25042.42319057 .00000024 00000-0 55052-4 0 9992 2 44909 82.5233 305.8043 0216769 211.6402 147.1519 12.79738169239578 UPMSat 2 1 46276U 20061E 25042.43679043 .00048937 00000-0 79803-3 0 9994 2 46276 97.2635 114.2197 0000321 30.0562 330.0709 15.52461619247045 SALSAT 1 46495U 20068K 25042.49665826 .00011124 00000-0 52201-3 0 9995 2 46495 97.8476 15.4037 0011288 201.3400 158.7364 15.19779868240574 CubeSX-Sirius-HSE 1 47951U 21022V 25042.86727616 .00075070 00000-0 12427-2 0 9996 2 47951 97.4350 310.0538 0009170 25.0850 335.0846 15.51885429215378 CubeSX-HSE 1 47952U 21022W 25042.84836078 .00075687 00000-0 12317-2 0 9990 2 47952 97.4354 310.2105 0008787 20.2569 339.9030 15.52365179215387 KSU-Cubesat 1 47954U 21022Y 25042.70347728 .00214110 00000-0 16701-2 0 9993 2 47954 97.4320 314.0287 0006309 43.7245 316.4516 15.71017756215334 GRBAlpha 1 47959U 21022AD 25042.80980100 .00075070 00000-0 12276-2 0 9999 2 47959 97.4340 310.3319 0009166 24.0960 336.0719 15.52227944214205 Orbicraft-Zorkiy 1 47960U 21022AE 25042.82901012 .00144768 00000-0 16017-2 0 9996 2 47960 97.4335 313.3741 0007092 30.8296 329.3377 15.62509336215065 TUBIN 1 48900U 21059X 25042.77837560 .00042606 00000-0 82645-3 0 9990 2 48900 97.6650 203.6571 0005071 313.5513 46.5315 15.47543256201744 LEDSAT 1 49069U 21073D 25042.72819500 .00045704 00000-0 99427-3 0 9990 2 49069 97.4050 120.7841 0013130 147.9558 212.2491 15.44085842193156 CUTE 1 49263U 21088D 25042.16410987 .00018085 00000-0 44397-3 0 9994 2 49263 97.4658 115.4066 0008494 315.9675 44.0894 15.40706487186151 TeikyoSat 4 1 49396U 21102B 25042.58038850 .00003785 00000-0 25813-3 0 9992 2 49396 97.4287 85.2192 0012952 170.9029 189.2436 15.06747169178773 Z-Sat 1 49399U 21102E 25042.81649500 .00006699 00000-0 38460-3 0 9990 2 49399 97.3986 87.8755 0019526 148.4623 211.7783 15.12689914179168 KOSEN 1 1 49402U 21102H 25042.69878781 .00009785 00000-0 48731-3 0 9997 2 49402 97.3900 90.3575 0017964 128.1296 232.1560 15.17637280179392 HO-113 1 50466U 21131B 25042.83298546 .00001161 00000-0 37855-3 0 9997 2 50466 98.5137 132.7892 0005105 124.3208 235.8464 14.40527235164498 IRIS-A 1 51044U 22002BN 25042.45209132 .00081344 00000-0 11100-2 0 9994 2 51044 97.3467 117.3391 0003878 249.3294 110.7545 15.57212964171291 Foresail-1 1 52766U 22057AL 25042.35305539 .00074816 00000-0 10368-2 0 9994 2 52766 97.5972 183.6390 0006172 341.1815 18.9210 15.56807888151314 SNUGLITE 2 1 52899U 22065F 25042.85038536 .00002369 00000-0 47529-3 0 9999 2 52899 98.1472 186.1463 0008469 119.7924 240.4121 14.62601199139270 IO-117 1 53106U 22080B 25042.50223640 -.00000003 00000-0 00000 0 0 9995 2 53106 70.1392 109.3763 0008154 50.6584 309.4797 6.42557620 60646 FO-118 1 54684U 22167C 25042.81367550 .00364719 00000-0 17179-2 0 9990 2 54684 97.6091 206.0177 0008042 316.7663 43.2973 15.82118179121353 SO-120 1 56992U 23084BU 25042.76759540 .17342116 26494-5 33638-3 0 9995 2 56992 97.5047 178.6720 0014759 276.3055 83.6566 16.46134597 93271 UmKA 1 (RS40S) 1 57172U 23091G 25042.85798847 .00007919 00000-0 45029-3 0 9995 2 57172 97.5774 98.9198 0015641 25.8662 334.3348 15.13046236 89661 CubeBel-2 (EU11S) 1 57175U 23091K 25042.88513981 .00012640 00000-0 66359-3 0 9991 2 57175 97.5777 99.4862 0013820 35.7361 324.4793 15.15779354 89709 VERONIKA 1 58261U 23174F 25042.77860559 .00059743 00000-0 12989-2 0 9998 2 58261 97.4295 124.3934 0007356 112.4398 247.7629 15.44100577 70362 KAFASAT 1 58317U 23174BP 25042.82944712 .00159210 00000-0 17473-2 0 9993 2 58317 97.4181 127.6285 0002712 58.3052 301.8471 15.62693661 70604 ENSO 1 58470U 23185J 25042.85151201 .00041661 00000-0 99242-3 0 9996 2 58470 97.3916 115.3858 0009141 143.7372 216.4496 15.41437985 66814 EIRSAT-1 1 58472U 23185L 25042.87837188 .00052101 00000-0 10891-2 0 9998 2 58472 97.3910 116.0719 0008105 144.8158 215.3627 15.45290400 66869 SONATE-2 1 59112U 24043Q 25042.35196465 .00024056 00000-0 83560-3 0 9995 2 59112 97.4968 171.7873 0012074 171.9406 188.2030 15.29684955 52226 MO-122 1 60209U 24125G 25042.51960666 .00024896 00000-0 85344-3 0 9999 2 60209 97.2943 255.8170 0020599 197.1381 162.9166 15.29967993 33867 GRBBeta 1 60237U 24128C 25042.62290385 .00005952 00000-0 47418-3 0 9991 2 60237 61.9933 130.3264 0040039 29.9343 330.4024 15.00809628 32488 Curium One 1 60242U 24128H 25042.61206789 .00009371 00000-0 71273-3 0 9996 2 60242 61.9836 130.0323 0040367 24.2199 336.0777 15.02060541 32493 ROBUSTA-3A 1 60243U 24128J 25042.58272262 .00009850 00000-0 75665-3 0 9993 2 60243 61.9903 130.6072 0038449 22.1107 338.1631 15.01696754 32481 CatSat 1 60246U 24125J 25042.09045133 .00015060 00000-0 55494-3 0 9992 2 60246 97.2729 255.7494 0046228 153.8137 206.5455 15.26882130 31885 HYPERVIEW-1G (RS66S) 1 61772U 24199AP 25042.87073280 .00024485 00000-0 87953-3 0 9994 2 61772 97.3733 272.3807 0014078 252.8930 107.0768 15.28557178 58938 AO-123 1 61781U 24199AY 25042.77234105 .00012236 00000-0 48191-3 0 9990 2 61781 97.3742 272.0657 0015129 254.4381 105.5188 15.25648264 58904 POEM 4 (BGS ARPIT) 1 62461U 24253C 25042.72712333 .00147298 00000-0 71660-3 0 9990 2 62461 55.2197 50.5546 0012547 44.5933 315.6124 15.81428786 6774